Simultaneous Nadir Overpasses (SNOs) Predictions

Prediction of SNOs between GOES-15 and METOP-B Satellite Orbit:

Table of predicted SNOs for the next 14.0 days since TLE Epoch: 5/11/2024
Index Date Time (GOES-15) GOES-15 Lat,Lon METOP-B Lat,Lon Distance(km) Time Diff (sec)
1 05/11/2024 17:05:52 0.18, 61.57 0.67, 63.87 261.76 80
2 05/13/2024 05:27:20 -0.18, 61.63 0.35, 59.31 265.16 80
3 05/14/2024 05:03:59 -0.19, 61.66 -0.76, 64.31 301.78 80
4 05/15/2024 17:25:36 0.19, 61.65 -0.26, 59.71 221.68 80
5 05/16/2024 17:02:15 0.19, 61.67 0.87, 64.70 345.43 80
6 05/18/2024 05:23:42 -0.19, 61.74 0.17, 60.15 181.05 80
7 05/19/2024 05:00:21 -0.20, 61.76 -0.97, 65.15 385.94 80
8 05/20/2024 17:21:57 0.19, 61.77 -0.07, 60.56 137.64 80
9 05/21/2024 16:58:34 0.20, 61.79 1.02, 65.56 429.13 80
10 05/23/2024 05:20:02 -0.19, 61.87 -0.02, 61.00 98.04 80
11 05/24/2024 04:56:39 -0.20, 61.90 -1.13, 66.00 468.17 80
